| time (UTC) | temp C | wind direction | speed KPH | gust KPH | rain 1hr cm | rain 24hr cm | rain mn cm | humidity % | barometer mb |
| 20260505124709 | 25 | 115 | 9.7 | 20.9 | 0.00 | 0.00 | 0.00 | 68 | 1015.7 |
| 20260505123637 | 25 | 91 | 9.7 | 17.7 | 0.00 | 0.00 | 0.00 | 68 | 1015.6 |
| 20260505122627 | 25 | 76 | 9.7 | 17.7 | 0.00 | 0.00 | 0.00 | 68 | 1015.8 |
| 20260505121638 | 25 | 107 | 8.0 | 22.5 | 0.00 | 0.00 | 0.00 | 69 | 1016.1 |
| 20260505120658 | 25 | 76 | 9.7 | 22.5 | 0.00 | 0.00 | 0.00 | 69 | 1016.0 |
| 20260505115710 | 24 | 71 | 6.4 | 22.5 | 0.00 | 0.00 | 0.00 | 69 | 1015.7 |
| 20260505112355 | 23 | 115 | 8.0 | 19.3 | 0.00 | 0.00 | 0.00 | 69 | 1015.3 |
| 20260505111355 | 23 | 73 | 8.0 | 19.3 | 0.00 | 0.00 | 0.00 | 70 | 1015.0 |
| 20260505110357 | 23 | 75 | 6.4 | 16.1 | 0.00 | 0.00 | 0.00 | 69 | 1014.8 |
| 20260505100134 | 23 | 105 | 6.4 | 12.9 | 0.00 | 0.00 | 0.00 | 70 | 1014.4 |
| 20260505095152 | 23 | 128 | 4.8 | 12.9 | 0.00 | 0.00 | 0.00 | 70 | 1014.3 |
| 20260505094125 | 23 | 78 | 8.0 | 16.1 | 0.00 | 0.00 | 0.00 | 70 | 1014.2 |
| 20260505093104 | 23 | 48 | 6.4 | 16.1 | 0.00 | 0.00 | 0.00 | 69 | 1014.2 |
| 20260505084824 | 23 | 108 | 6.4 | 14.5 | 0.00 | 0.00 | 0.00 | 70 | 1013.9 |
| 20260505083751 | 23 | 67 | 4.8 | 11.3 | 0.00 | 0.00 | 0.00 | 70 | 1013.9 |
| 20260505082757 | 23 | 98 | 6.4 | 14.5 | 0.00 | 0.00 | 0.00 | 70 | 1013.9 |
| 20260505081801 | 23 | 115 | 4.8 | 16.1 | 0.00 | 0.00 | 0.00 | 70 | 1013.7 |
| 20260505080747 | 23 | 102 | 6.4 | 16.1 | 0.00 | 0.00 | 0.00 | 69 | 1014.0 |
| 20260505075745 | 23 | 105 | 4.8 | 16.1 | 0.00 | 0.00 | 0.00 | 71 | 1013.9 |
| 20260505073607 | 23 | 96 | 8.0 | 16.1 | 0.00 | 0.00 | 0.00 | 70 | 1014.0 |
| 20260505072622 | 23 | 107 | 6.4 | 14.5 | 0.00 | 0.00 | 0.00 | 70 | 1014.2 |
| 20260505071602 | 23 | 93 | 6.4 | 14.5 | 0.00 | 0.00 | 0.00 | 70 | 1014.3 |
| 20260505070608 | 23 | 111 | 4.8 | 17.7 | 0.00 | 0.00 | 0.00 | 69 | 1014.2 |
| 20260505065542 | 23 | 123 | 6.4 | 17.7 | 0.00 | 0.00 | 0.00 | 70 | 1014.3 |
| 20260505064531 | 23 | 129 | 8.0 | 17.7 | 0.00 | 0.00 | 0.00 | 71 | 1014.3 |
| 20260505063456 | 23 | 118 | 6.4 | 14.5 | 0.00 | 0.00 | 0.00 | 70 | 1014.4 |
| 20260505062419 | 23 | 101 | 6.4 | 17.7 | 0.00 | 0.00 | 0.00 | 70 | 1014.7 |
| 20260505060228 | 23 | 75 | 6.4 | 16.1 | 0.00 | 0.00 | 0.00 | 70 | 1014.7 |
| 20260505055221 | 23 | 94 | 6.4 | 16.1 | 0.00 | 0.00 | 0.00 | 70 | 1014.9 |
| 20260505054227 | 23 | 67 | 8.0 | 17.7 | 0.00 | 0.00 | 0.00 | 70 | 1015.2 |
| 20260505052053 | 23 | 69 | 8.0 | 17.7 | 0.00 | 0.00 | 0.00 | 71 | 1015.3 |
| 20260505040553 | 23 | 85 | 9.7 | 20.9 | 0.00 | 0.00 | 0.00 | 71 | 1015.6 |
| 20260505035547 | 23 | 69 | 9.7 | 24.1 | 0.00 | 0.00 | 0.00 | 71 | 1015.7 |
| 20260505034539 | 23 | 100 | 11.3 | 24.1 | 0.00 | 0.00 | 0.00 | 71 | 1015.6 |
| 20260505033503 | 23 | 71 | 11.3 | 22.5 | 0.00 | 0.00 | 0.00 | 71 | 1015.7 |
| 20260505030133 | 23 | 98 | 11.3 | 27.4 | 0.00 | 0.00 | 0.00 | 72 | 1015.9 |
| 20260505025122 | 23 | 103 | 11.3 | 27.4 | 0.00 | 0.00 | 0.00 | 72 | 1016.0 |
| 20260505024053 | 23 | 68 | 9.7 | 20.9 | 0.00 | 0.00 | 0.00 | 72 | 1015.9 |
| 20260505023108 | 23 | 51 | 9.7 | 20.9 | 0.00 | 0.00 | 0.00 | 72 | 1015.9 |
| 20260505021010 | 23 | 87 | 11.3 | 24.1 | 0.00 | 0.00 | 0.00 | 71 | 1015.9 |
| 20260505015947 | 23 | 108 | 11.3 | 22.5 | 0.00 | 0.00 | 0.00 | 71 | 1015.8 |
| 20260505014955 | 23 | 96 | 11.3 | 20.9 | 0.00 | 0.00 | 0.00 | 71 | 1015.8 |
| 20260505013918 | 23 | 88 | 9.7 | 19.3 | 0.00 | 0.00 | 0.00 | 71 | 1015.8 |
| 20260505012931 | 23 | 69 | 8.0 | 19.3 | 0.00 | 0.00 | 0.00 | 71 | 1015.9 |
| 20260505011909 | 23 | 32 | 9.7 | 19.3 | 0.00 | 0.00 | 0.00 | 70 | 1015.9 |
| 20260505004542 | 23 | 84 | 9.7 | 22.5 | 0.00 | 0.00 | 0.00 | 70 | 1015.1 |
| 20260505003556 | 23 | 33 | 9.7 | 19.3 | 0.00 | 0.00 | 0.00 | 70 | 1015.2 |
| 20260505002525 | 23 | 77 | 8.0 | 19.3 | 0.00 | 0.00 | 0.00 | 70 | 1015.3 |
| 20260505001524 | 23 | 84 | 11.3 | 22.5 | 0.00 | 0.00 | 0.00 | 70 | 1015.2 |
| 20260505000516 | 23 | 69 | 9.7 | 22.5 | 0.00 | 0.00 | 0.00 | 70 | 1015.0 |
| 20260504235536 | 23 | 80 | 9.7 | 25.7 | 0.00 | 0.00 | 0.00 | 69 | 1014.9 |
| 20260504234527 | 23 | 45 | 11.3 | 25.7 | 0.00 | 0.00 | 0.00 | 70 | 1014.8 |
| 20260504233531 | 23 | 40 | 11.3 | 22.5 | 0.00 | 0.00 | 0.00 | 70 | 1014.7 |
| 20260504232503 | 23 | 94 | 9.7 | 24.1 | 0.00 | 0.00 | 0.00 | 70 | 1014.9 |
| 20260504231522 | 23 | 80 | 9.7 | 24.1 | 0.00 | 0.00 | 0.00 | 69 | 1014.8 |
| 20260504230522 | 23 | 67 | 11.3 | 22.5 | 0.00 | 0.00 | 0.00 | 70 | 1014.9 |
| 20260504225510 | 23 | 94 | 11.3 | 22.5 | 0.00 | 0.00 | 0.00 | 70 | 1014.9 |
| 20260504224442 | 23 | 98 | 11.3 | 22.5 | 0.00 | 0.00 | 0.00 | 69 | 1014.8 |
| 20260504223427 | 23 | 61 | 9.7 | 22.5 | 0.00 | 0.00 | 0.00 | 69 | 1014.7 |
| 20260504222412 | 24 | 68 | 11.3 | 24.1 | 0.00 | 0.00 | 0.00 | 68 | 1014.7 |
| 20260504221350 | 24 | 94 | 11.3 | 25.7 | 0.00 | 0.00 | 0.00 | 68 | 1014.7 |
| 20260504220402 | 24 | 77 | 9.7 | 27.4 | 0.00 | 0.00 | 0.00 | 68 | 1014.7 |
| 20260504215346 | 24 | 104 | 11.3 | 27.4 | 0.00 | 0.00 | 0.00 | 69 | 1014.8 |
| 20260504214351 | 24 | 68 | 11.3 | 25.7 | 0.00 | 0.00 | 0.00 | 69 | 1014.8 |
| 20260504212223 | 24 | 59 | 11.3 | 27.4 | 0.00 | 0.00 | 0.00 | 68 | 1015.0 |
| 20260504210042 | 24 | 96 | 11.3 | 24.1 | 0.00 | 0.00 | 0.00 | 67 | 1015.1 |
| 20260504205052 | 25 | 49 | 12.9 | 24.1 | 0.00 | 0.00 | 0.00 | 66 | 1015.1 |
| 20260504204043 | 25 | 79 | 12.9 | 25.7 | 0.00 | 0.00 | 0.00 | 66 | 1015.1 |
| 20260504201913 | 24 | 102 | 12.9 | 27.4 | 0.00 | 0.00 | 0.00 | 66 | 1015.3 |
| 20260504195652 | 24 | 38 | 11.3 | 24.1 | 0.00 | 0.00 | 0.00 | 67 | 1015.3 |
| 20260504194631 | 24 | 65 | 12.9 | 24.1 | 0.00 | 0.00 | 0.00 | 66 | 1015.5 |
| 20260504193628 | 24 | 51 | 11.3 | 27.4 | 0.00 | 0.00 | 0.00 | 67 | 1015.8 |
| 20260504192634 | 25 | 39 | 12.9 | 27.4 | 0.00 | 0.00 | 0.00 | 66 | 1016.0 |
| 20260504191613 | 25 | 51 | 12.9 | 24.1 | 0.00 | 0.00 | 0.00 | 65 | 1016.0 |
| 20260504190538 | 25 | 65 | 14.5 | 30.6 | 0.00 | 0.00 | 0.00 | 64 | 1016.1 |
| 20260504185506 | 25 | 46 | 12.9 | 27.4 | 0.00 | 0.00 | 0.00 | 66 | 1016.2 |
| 20260504183251 | 25 | 80 | 14.5 | 29.0 | 0.00 | 0.00 | 0.00 | 65 | 1016.3 |
| 20260504182227 | 26 | 84 | 11.3 | 29.0 | 0.00 | 0.00 | 0.00 | 65 | 1016.4 |
| 20260504180010 | 26 | 49 | 11.3 | 29.0 | 0.00 | 0.00 | 0.00 | 63 | 1016.5 |
| 20260504175019 | 25 | 16 | 14.5 | 29.0 | 0.00 | 0.00 | 0.00 | 64 | 1016.6 |
| 20260504172921 | 25 | 60 | 14.5 | 25.7 | 0.00 | 0.00 | 0.00 | 64 | 1016.7 |
| 20260504171912 | 25 | 49 | 12.9 | 27.4 | 0.00 | 0.00 | 0.00 | 65 | 1016.7 |
| 20260504170907 | 25 | 43 | 12.9 | 27.4 | 0.00 | 0.00 | 0.00 | 64 | 1016.8 |
| 20260504150607 | 25 | 25 | 14.5 | 29.0 | 0.00 | 0.00 | 0.00 | 63 | 1017.2 |
| 20260504140501 | 24 | 86 | 14.5 | 30.6 | 0.00 | 0.00 | 0.00 | 65 | 1016.6 |